START_TIME,STEP,MOV.,M34,t_acc.,L5,t_acc.,L18,t_acc.,L14,t_acc.
1979-07-15 06:00:24.940 ,0,1,0.,12.0,0.,12.0,0.,12.0,0.,12.0
1979-07-15 06:00:36.940 ,0,1,1.,12.0,0.,12.0,0.,12.0,0.,12.0
1979-07-15 06:00:48.940 ,3,1,0.,12.0,0.,12.0,0.,12.0,0.,12.0
1979-07-15 06:01:00.940 ,3,1,0.,12.0,0.,12.0,0.,12.0,0.,12.0
1979-07-15 06:01:12.940 ,7,1,0.,12.0,0.,12.0,0.,12.0,0.,12.0
1979-07-15 06:01:24.940 ,7,1,1.,12.0,0.,12.0,0.,12.0,0.,12.0
1979-07-15 06:01:36.940 ,4,1,0.,12.0,0.,12.0,0.,12.0,0.,12.0
1979-07-15 06:01:48.940 ,4,1,0.,12.0,0.,12.0,0.,12.0,0.,12.0
1979-07-15 06:02:00.940 ,0,1,0.,12.0,0.,12.0,0.,12.0,0.,12.0
1979-07-15 06:02:12.940 ,0,1,0.,12.0,0.,12.0,0.,12.0,0.,12.0
1979-07-15 06:02:24.940 ,3,1,1.,12.0,0.,12.0,0.,12.0,0.,12.0
1979-07-15 06:02:36.940 ,3,1,0.,12.0,0.,12.0,0.,12.0,0.,12.0
1979-07-15 06:02:48.940 ,7,1,1.,12.0,0.,12.0,0.,12.0,0.,12.0
1979-07-15 06:03:00.940 ,7,1,1.,12.0,0.,12.0,0.,12.0,0.,12.0
1979-07-15 06:03:12.940 ,4,1,0.,12.0,0.,12.0,0.,12.0,0.,12.0
1979-07-15 06:03:24.940 ,4,1,1.,12.0,0.,12.0,0.,12.0,0.,12.0
1979-07-15 06:03:36.940 ,0,1,0.,12.0,0.,12.0,0.,12.0,0.,12.0
1979-07-15 06:03:48.940 ,0,1,0.,12.0,0.,12.0,0.,12.0,0.,12.0
1979-07-15 06:04:00.940 ,3,1,0.,12.0,0.,12.0,0.,12.0,0.,12.0
1979-07-15 06:04:12.940 ,3,1,0.,12.0,0.,12.0,0.,12.0,0.,12.0
1979-07-15 06:04:24.940 ,7,1,0.,12.0,0.,12.0,0.,12.0,0.,12.0
1979-07-15 06:04:36.940 ,7,1,0.,12.0,0.,12.0,0.,12.0,0.,12.0
1979-07-15 06:04:48.940 ,4,1,1.,12.0,0.,12.0,0.,12.0,0.,12.0
1979-07-15 06:05:00.940 ,4,1,2.,12.0,0.,12.0,0.,12.0,0.,12.0
1979-07-15 06:05:12.940 ,0,1,0.,12.0,0.,12.0,0.,12.0,0.,12.0
1979-07-15 06:05:24.940 ,0,1,0.,12.0,0.,12.0,0.,12.0,0.,12.0
1979-07-15 06:05:36.940 ,0,0,0.,12.0,0.,12.0,0.,12.0,0.,12.0
1979-07-15 06:05:48.940 ,0,0,0.,12.0,0.,12.0,0.,12.0,0.,12.0
1979-07-15 06:06:00.940 ,0,0,0.,12.0,0.,12.0,0.,12.0,0.,12.0
1979-07-15 06:06:12.940 ,0,0,0.,12.0,0.,12.0,0.,12.0,0.,12.0
1979-07-15 06:06:24.940 ,5,1,0.,12.0,0.,12.0,0.,12.0,0.,12.0
1979-07-15 06:06:36.940 ,5,1,1.,12.0,0.,12.0,0.,12.0,0.,12.0
1979-07-15 06:06:48.940 ,5,0,1.,12.0,0.,12.0,0.,12.0,0.,12.0
1979-07-15 06:07:00.940 ,5,0,1.,12.0,0.,12.0,0.,12.0,0.,12.0
1979-07-15 06:07:12.940 ,4,1,0.,12.0,0.,12.0,0.,12.0,0.,12.0
1979-07-15 06:07:24.940 ,4,1,0.,12.0,0.,12.0,0.,12.0,0.,12.0
1979-07-15 06:07:36.940 ,4,0,0.,12.0,0.,12.0,0.,12.0,0.,12.0
1979-07-15 06:07:48.940 ,4,0,0.,12.0,0.,12.0,0.,12.0,0.,12.0
1979-07-15 06:08:00.940 ,3,1,0.,12.0,0.,12.0,0.,12.0,0.,12.0
1979-07-15 06:08:12.940 ,3,1,0.,12.0,0.,12.0,0.,12.0,0.,12.0
1979-07-15 06:08:24.940 ,3,0,0.,12.0,0.,12.0,0.,12.0,0.,12.0
1979-07-15 06:08:36.940 ,3,0,0.,12.0,0.,12.0,0.,12.0,0.,12.0
1979-07-15 06:08:48.940 ,2,1,0.,12.0,0.,12.0,0.,12.0,0.,12.0
1979-07-15 06:09:00.940 ,2,1,0.,12.0,0.,12.0,0.,12.0,0.,12.0
1979-07-15 06:09:12.940 ,2,0,0.,12.0,0.,12.0,0.,12.0,0.,12.0
1979-07-15 06:09:24.940 ,2,0,0.,12.0,0.,12.0,0.,12.0,0.,12.0
1979-07-15 06:09:36.940 ,1,1,0.,12.0,0.,12.0,0.,12.0,0.,12.0
1979-07-15 06:09:48.940 ,1,1,0.,12.0,0.,12.0,0.,12.0,0.,12.0
1979-07-15 06:10:00.940 ,1,0,0.,12.0,0.,12.0,0.,12.0,0.,12.0
1979-07-15 06:10:12.940 ,1,0,0.,12.0,0.,12.0,0.,12.0,0.,12.0
1979-07-15 06:10:24.940 ,0,1,0.,12.0,0.,12.0,0.,12.0,0.,12.0
1979-07-15 06:10:36.940 ,0,1,0.,12.0,0.,12.0,0.,12.0,0.,12.0
1979-07-15 06:10:48.940 ,0,0,0.,12.0,0.,12.0,0.,12.0,0.,12.0
1979-07-15 06:11:00.940 ,0,0,0.,12.0,0.,12.0,0.,12.0,0.,12.0
1979-07-15 06:11:12.940 ,0,1,1.,12.0,0.,12.0,0.,12.0,0.,12.0
1979-07-15 06:11:24.940 ,0,1,0.,12.0,0.,12.0,0.,12.0,0.,12.0
1979-07-15 06:11:36.940 ,0,0,0.,12.0,0.,12.0,0.,12.0,0.,12.0
1979-07-15 06:11:48.940 ,0,0,0.,12.0,0.,12.0,0.,12.0,0.,12.0
1979-07-15 06:12:00.930 ,1,1,0.,12.0,0.,12.0,0.,12.0,0.,12.0
1979-07-15 06:12:12.930 ,1,1,0.,12.0,0.,12.0,0.,12.0,0.,12.0
1979-07-15 06:12:24.930 ,1,0,0.,12.0,0.,12.0,0.,12.0,0.,12.0
1979-07-15 06:12:36.930 ,1,0,0.,12.0,0.,12.0,0.,12.0,0.,12.0
1979-07-15 06:12:48.930 ,2,1,0.,12.0,0.,12.0,0.,12.0,0.,12.0
1979-07-15 06:13:00.930 ,2,1,0.,12.0,0.,12.0,0.,12.0,0.,12.0
1979-07-15 06:13:12.930 ,2,0,0.,12.0,0.,12.0,0.,12.0,0.,12.0
1979-07-15 06:13:24.930 ,2,0,0.,12.0,0.,12.0,0.,12.0,0.,12.0
1979-07-15 06:13:36.930 ,3,1,1.,12.0,0.,12.0,0.,12.0,0.,12.0
1979-07-15 06:13:48.930 ,3,1,0.,12.0,0.,12.0,0.,12.0,0.,12.0
1979-07-15 06:14:00.930 ,3,0,0.,12.0,0.,12.0,0.,12.0,0.,12.0
1979-07-15 06:14:12.930 ,3,0,0.,12.0,0.,12.0,0.,12.0,0.,12.0
1979-07-15 06:14:24.930 ,4,1,0.,12.0,0.,12.0,0.,12.0,0.,12.0
1979-07-15 06:14:36.930 ,4,1,0.,12.0,0.,12.0,0.,12.0,0.,12.0
1979-07-15 06:14:48.930 ,4,0,0.,12.0,0.,12.0,0.,12.0,0.,12.0
1979-07-15 06:15:00.930 ,4,0,0.,12.0,0.,12.0,0.,12.0,0.,12.0
1979-07-15 06:15:12.930 ,5,1,0.,12.0,0.,12.0,0.,12.0,0.,12.0
1979-07-15 06:15:24.930 ,5,1,1.,12.0,0.,12.0,0.,12.0,0.,12.0
1979-07-15 06:15:36.930 ,5,0,0.,12.0,0.,12.0,0.,12.0,0.,12.0
1979-07-15 06:15:48.930 ,5,0,0.,12.0,0.,12.0,0.,12.0,0.,12.0
1979-07-15 06:16:00.930 ,6,1,1.,12.0,0.,12.0,0.,12.0,0.,12.0
1979-07-15 06:16:12.930 ,6,1,0.,12.0,0.,12.0,0.,12.0,0.,12.0
1979-07-15 06:16:24.930 ,6,0,0.,12.0,0.,12.0,0.,12.0,0.,12.0
1979-07-15 06:16:36.930 ,6,0,0.,12.0,0.,12.0,0.,12.0,0.,12.0
1979-07-15 06:16:48.930 ,7,1,1.,12.0,0.,12.0,0.,12.0,0.,12.0
1979-07-15 06:17:00.930 ,7,1,0.,12.0,0.,12.0,0.,12.0,0.,12.0
1979-07-15 06:17:12.930 ,7,0,0.,12.0,0.,12.0,0.,12.0,0.,12.0
1979-07-15 06:17:24.930 ,7,0,0.,12.0,0.,12.0,0.,12.0,0.,12.0
1979-07-15 06:17:36.930 ,7,1,0.,12.0,0.,12.0,0.,12.0,0.,12.0
1979-07-15 06:17:48.930 ,7,1,0.,12.0,0.,12.0,0.,12.0,0.,12.0
1979-07-15 06:18:00.930 ,7,0,0.,12.0,0.,12.0,0.,12.0,0.,12.0
1979-07-15 06:18:12.930 ,7,0,0.,12.0,0.,12.0,0.,12.0,0.,12.0
1979-07-15 06:18:24.930 ,6,1,0.,12.0,0.,12.0,0.,12.0,0.,12.0
1979-07-15 06:18:36.930 ,6,1,0.,12.0,0.,12.0,0.,12.0,0.,12.0
1979-07-15 06:18:48.930 ,6,0,1.,12.0,0.,12.0,0.,12.0,0.,12.0
1979-07-15 06:19:00.930 ,6,0,0.,12.0,0.,12.0,0.,12.0,0.,12.0
1979-07-15 06:19:12.930 ,5,1,0.,12.0,0.,12.0,0.,12.0,0.,12.0
1979-07-15 06:19:24.930 ,5,1,1.,12.0,0.,12.0,0.,12.0,0.,12.0
1979-07-15 06:19:36.930 ,5,0,0.,12.0,0.,12.0,0.,12.0,0.,12.0
1979-07-15 06:19:48.930 ,5,0,1.,12.0,0.,12.0,0.,12.0,0.,12.0
1979-07-15 06:20:00.930 ,4,1,1.,12.0,0.,12.0,0.,12.0,0.,12.0
1979-07-15 06:20:12.930 ,4,1,0.,12.0,0.,12.0,0.,12.0,0.,12.0
1979-07-15 06:20:24.930 ,4,0,0.,12.0,0.,12.0,0.,12.0,0.,12.0
1979-07-15 06:20:36.930 ,4,0,1.,12.0,0.,12.0,0.,12.0,0.,12.0
1979-07-15 06:20:48.930 ,3,1,0.,12.0,0.,12.0,0.,12.0,0.,12.0
1979-07-15 06:21:00.930 ,3,1,0.,12.0,0.,12.0,0.,12.0,0.,12.0
1979-07-15 06:21:12.930 ,3,0,0.,12.0,0.,12.0,0.,12.0,0.,12.0
1979-07-15 06:21:24.930 ,3,0,0.,12.0,0.,12.0,0.,12.0,0.,12.0
1979-07-15 06:21:36.930 ,2,1,0.,12.0,0.,12.0,0.,12.0,0.,12.0
1979-07-15 06:21:48.930 ,2,1,0.,12.0,0.,12.0,0.,12.0,0.,12.0
1979-07-15 06:22:00.930 ,2,0,0.,12.0,0.,12.0,0.,12.0,0.,12.0
1979-07-15 06:22:12.930 ,2,0,0.,12.0,0.,12.0,0.,12.0,0.,12.0
1979-07-15 06:22:24.930 ,1,1,0.,12.0,0.,12.0,0.,12.0,0.,12.0
1979-07-15 06:22:36.930 ,1,1,1.,12.0,0.,12.0,0.,12.0,0.,12.0
1979-07-15 06:22:48.930 ,1,0,0.,12.0,0.,12.0,0.,12.0,0.,12.0
1979-07-15 06:23:00.930 ,1,0,0.,12.0,0.,12.0,0.,12.0,0.,12.0
1979-07-15 06:23:12.930 ,0,1,0.,12.0,0.,12.0,0.,12.0,0.,12.0
1979-07-15 06:23:24.930 ,0,1,0.,12.0,0.,12.0,0.,12.0,0.,12.0
1979-07-15 06:23:36.930 ,0,0,0.,12.0,0.,12.0,0.,12.0,0.,12.0
1979-07-15 06:23:48.930 ,0,0,0.,12.0,0.,12.0,0.,12.0,0.,12.0
1979-07-15 06:24:00.930 ,0,1,0.,12.0,0.,12.0,0.,12.0,0.,12.0
1979-07-15 06:24:12.930 ,0,1,0.,12.0,0.,12.0,0.,12.0,0.,12.0
1979-07-15 06:24:24.930 ,0,0,1.,12.0,0.,12.0,0.,12.0,0.,12.0
1979-07-15 06:24:36.930 ,0,0,0.,12.0,0.,12.0,0.,12.0,0.,12.0
1979-07-15 06:24:48.930 ,1,1,0.,12.0,0.,12.0,0.,12.0,0.,12.0
1979-07-15 06:25:00.930 ,1,1,0.,12.0,0.,12.0,0.,12.0,0.,12.0
1979-07-15 06:25:12.930 ,1,0,0.,12.0,0.,12.0,0.,12.0,0.,12.0
1979-07-15 06:25:24.930 ,1,0,0.,12.0,0.,12.0,0.,12.0,0.,12.0
1979-07-15 06:25:36.930 ,2,1,0.,12.0,0.,12.0,0.,12.0,0.,12.0
1979-07-15 06:25:48.930 ,2,1,0.,12.0,0.,12.0,0.,12.0,0.,12.0
1979-07-15 06:26:00.930 ,2,0,0.,12.0,0.,12.0,0.,12.0,0.,12.0
1979-07-15 06:26:12.930 ,2,0,0.,12.0,0.,12.0,0.,12.0,0.,12.0
1979-07-15 06:26:24.930 ,3,1,0.,12.0,0.,12.0,0.,12.0,0.,12.0
1979-07-15 06:26:36.930 ,3,1,1.,12.0,0.,12.0,0.,12.0,0.,12.0
1979-07-15 06:26:48.930 ,3,0,0.,12.0,0.,12.0,0.,12.0,0.,12.0
1979-07-15 06:27:00.930 ,3,0,0.,12.0,0.,12.0,0.,12.0,0.,12.0
1979-07-15 06:27:12.930 ,4,1,0.,12.0,0.,12.0,0.,12.0,0.,12.0
1979-07-15 06:27:24.930 ,4,1,0.,12.0,0.,12.0,0.,12.0,0.,12.0
1979-07-15 06:27:36.930 ,4,0,0.,12.0,0.,12.0,0.,12.0,0.,12.0
1979-07-15 06:27:48.930 ,4,0,0.,12.0,0.,12.0,0.,12.0,0.,12.0
1979-07-15 06:28:00.930 ,5,1,1.,12.0,0.,12.0,0.,12.0,0.,12.0
1979-07-15 06:28:12.930 ,5,1,0.,12.0,0.,12.0,0.,12.0,0.,12.0
1979-07-15 06:28:24.930 ,5,0,0.,12.0,0.,12.0,0.,12.0,0.,12.0
1979-07-15 06:28:36.930 ,5,0,0.,12.0,0.,12.0,0.,12.0,0.,12.0
1979-07-15 06:28:48.930 ,6,1,0.,12.0,0.,12.0,0.,12.0,0.,12.0
1979-07-15 06:29:00.930 ,6,1,0.,12.0,0.,12.0,0.,12.0,0.,12.0
1979-07-15 06:29:12.930 ,6,0,0.,12.0,0.,12.0,0.,12.0,0.,12.0
1979-07-15 06:29:24.930 ,6,0,0.,12.0,0.,12.0,0.,12.0,0.,12.0
1979-07-15 06:29:36.930 ,7,1,0.,12.0,0.,12.0,0.,12.0,0.,12.0
1979-07-15 06:29:48.930 ,7,1,0.,12.0,0.,12.0,0.,12.0,0.,12.0
1979-07-15 06:30:00.930 ,7,0,0.,12.0,0.,12.0,0.,12.0,0.,12.0
1979-07-15 06:30:12.930 ,7,0,0.,12.0,0.,12.0,0.,12.0,0.,12.0
1979-07-15 06:30:24.930 ,7,1,0.,12.0,0.,12.0,0.,12.0,0.,12.0
1979-07-15 06:30:36.930 ,7,1,0.,12.0,0.,12.0,0.,12.0,0.,12.0
1979-07-15 06:30:48.930 ,7,0,0.,12.0,0.,12.0,0.,12.0,0.,12.0
1979-07-15 06:31:00.930 ,7,0,0.,12.0,0.,12.0,0.,12.0,0.,12.0
1979-07-15 06:31:12.930 ,6,1,0.,12.0,0.,12.0,0.,12.0,0.,12.0
1979-07-15 06:31:24.930 ,6,1,0.,12.0,0.,12.0,0.,12.0,0.,12.0
1979-07-15 06:31:36.930 ,6,0,0.,12.0,0.,12.0,0.,12.0,0.,12.0
1979-07-15 06:31:48.930 ,6,0,0.,12.0,0.,12.0,0.,12.0,0.,12.0
1979-07-15 06:32:00.930 ,5,1,1.,12.0,0.,12.0,0.,12.0,0.,12.0
1979-07-15 06:32:12.930 ,5,1,1.,12.0,0.,12.0,0.,12.0,0.,12.0
1979-07-15 06:32:24.930 ,5,0,1.,12.0,0.,12.0,0.,12.0,0.,12.0
1979-07-15 06:32:36.930 ,5,0,0.,12.0,0.,12.0,0.,12.0,0.,12.0
1979-07-15 06:32:48.930 ,4,1,3.,12.0,0.,12.0,0.,12.0,0.,12.0
1979-07-15 06:33:00.930 ,4,1,0.,12.0,0.,12.0,0.,12.0,0.,12.0
1979-07-15 06:33:12.930 ,4,0,0.,12.0,0.,12.0,0.,12.0,0.,12.0
1979-07-15 06:33:24.930 ,4,0,0.,12.0,0.,12.0,0.,12.0,0.,12.0
1979-07-15 06:33:36.930 ,3,1,0.,12.0,0.,12.0,0.,12.0,0.,12.0
1979-07-15 06:33:48.930 ,3,1,0.,12.0,0.,12.0,0.,12.0,0.,12.0
1979-07-15 06:34:00.930 ,3,0,0.,12.0,0.,12.0,0.,12.0,0.,12.0
1979-07-15 06:34:12.940 ,3,0,0.,12.0,0.,12.0,0.,12.0,0.,12.0
1979-07-15 06:34:24.940 ,2,1,0.,12.0,0.,12.0,0.,12.0,0.,12.0
1979-07-15 06:34:36.940 ,2,1,0.,12.0,0.,12.0,0.,12.0,0.,12.0
1979-07-15 06:34:48.940 ,2,0,0.,12.0,0.,12.0,0.,12.0,0.,12.0
1979-07-15 06:35:00.940 ,2,0,0.,12.0,0.,12.0,0.,12.0,0.,12.0
1979-07-15 06:35:12.940 ,1,1,0.,12.0,0.,12.0,0.,12.0,0.,12.0
1979-07-15 06:35:24.940 ,1,1,0.,12.0,0.,12.0,0.,12.0,0.,12.0
1979-07-15 06:35:36.940 ,1,0,0.,12.0,0.,12.0,0.,12.0,0.,12.0
1979-07-15 06:35:48.940 ,1,0,0.,12.0,0.,12.0,0.,12.0,0.,12.0
1979-07-15 06:36:00.940 ,0,1,0.,12.0,0.,12.0,0.,12.0,0.,12.0
1979-07-15 06:36:12.940 ,0,1,0.,12.0,0.,12.0,0.,12.0,0.,12.0
1979-07-15 06:36:24.940 ,0,0,0.,12.0,0.,12.0,0.,12.0,0.,12.0
1979-07-15 06:36:36.940 ,0,0,0.,12.0,0.,12.0,0.,12.0,0.,12.0
1979-07-15 06:36:48.940 ,0,1,1.,12.0,0.,12.0,0.,12.0,0.,12.0
1979-07-15 06:37:00.940 ,0,1,0.,12.0,0.,12.0,0.,12.0,0.,12.0
1979-07-15 06:37:12.940 ,0,0,0.,12.0,0.,12.0,0.,12.0,0.,12.0
1979-07-15 06:37:24.940 ,0,0,0.,12.0,0.,12.0,0.,12.0,0.,12.0
1979-07-15 06:37:36.940 ,1,1,0.,12.0,0.,12.0,0.,12.0,0.,12.0
1979-07-15 06:37:48.940 ,1,1,0.,12.0,0.,12.0,0.,12.0,0.,12.0
1979-07-15 06:38:00.940 ,1,0,0.,12.0,0.,12.0,0.,12.0,0.,12.0
1979-07-15 06:38:12.940 ,1,0,0.,12.0,0.,12.0,0.,12.0,0.,12.0
1979-07-15 06:38:24.930 ,2,1,0.,12.0,0.,12.0,0.,12.0,0.,12.0
1979-07-15 06:38:36.930 ,2,1,0.,12.0,0.,12.0,0.,12.0,0.,12.0
1979-07-15 06:38:48.930 ,2,0,0.,12.0,0.,12.0,0.,12.0,0.,12.0
1979-07-15 06:39:00.930 ,2,0,0.,12.0,0.,12.0,0.,12.0,0.,12.0
1979-07-15 06:39:12.930 ,3,1,0.,12.0,0.,12.0,0.,12.0,0.,12.0
1979-07-15 06:39:24.930 ,3,1,0.,12.0,0.,12.0,0.,12.0,0.,12.0
1979-07-15 06:39:36.930 ,3,0,0.,12.0,0.,12.0,0.,12.0,0.,12.0
1979-07-15 06:39:48.930 ,3,0,0.,12.0,0.,12.0,0.,12.0,0.,12.0
1979-07-15 06:40:00.930 ,4,1,0.,12.0,0.,12.0,0.,12.0,0.,12.0
1979-07-15 06:40:12.930 ,4,1,0.,12.0,0.,12.0,0.,12.0,0.,12.0
1979-07-15 06:40:24.930 ,4,0,0.,12.0,0.,12.0,0.,12.0,0.,12.0
1979-07-15 06:40:36.930 ,4,0,0.,12.0,0.,12.0,0.,12.0,0.,12.0
1979-07-15 06:40:48.930 ,5,1,0.,12.0,0.,12.0,0.,12.0,0.,12.0
1979-07-15 06:41:00.930 ,5,1,0.,12.0,0.,12.0,0.,12.0,0.,12.0
1979-07-15 06:41:12.930 ,5,0,0.,12.0,0.,12.0,0.,12.0,0.,12.0
1979-07-15 06:41:24.930 ,5,0,0.,12.0,0.,12.0,0.,12.0,0.,12.0
1979-07-15 06:41:36.930 ,6,1,0.,12.0,0.,12.0,0.,12.0,0.,12.0
1979-07-15 06:41:48.930 ,6,1,0.,12.0,0.,12.0,0.,12.0,0.,12.0
1979-07-15 06:42:00.930 ,6,0,0.,12.0,0.,12.0,0.,12.0,0.,12.0
1979-07-15 06:42:12.930 ,6,0,0.,12.0,0.,12.0,0.,12.0,0.,12.0
1979-07-15 06:42:24.930 ,7,0,0.,12.0,0.,12.0,0.,12.0,0.,12.0
1979-07-15 06:42:36.930 ,7,0,0.,12.0,0.,12.0,0.,12.0,0.,12.0
1979-07-15 06:42:48.930 ,7,0,0.,12.0,0.,12.0,0.,12.0,0.,12.0
1979-07-15 06:43:00.930 ,7,0,0.,12.0,0.,12.0,0.,12.0,0.,12.0
1979-07-15 06:43:12.930 ,4,1,0.,12.0,0.,12.0,0.,12.0,0.,12.0
1979-07-15 06:43:24.930 ,4,1,0.,12.0,0.,12.0,0.,12.0,0.,12.0
1979-07-15 06:43:36.930 ,0,1,0.,12.0,0.,12.0,0.,12.0,0.,12.0
1979-07-15 06:43:48.930 ,0,1,0.,12.0,0.,12.0,0.,12.0,0.,12.0
1979-07-15 06:44:00.930 ,3,1,0.,12.0,0.,12.0,0.,12.0,0.,12.0
1979-07-15 06:44:12.930 ,3,1,0.,12.0,0.,12.0,0.,12.0,0.,12.0
1979-07-15 06:44:24.930 ,7,1,0.,12.0,0.,12.0,0.,12.0,0.,12.0
1979-07-15 06:44:36.930 ,7,1,0.,12.0,0.,12.0,0.,12.0,0.,12.0
1979-07-15 06:44:48.930 ,4,1,0.,12.0,0.,12.0,0.,12.0,0.,12.0
1979-07-15 06:45:00.930 ,4,1,0.,12.0,0.,12.0,0.,12.0,0.,12.0
1979-07-15 06:45:12.930 ,0,1,0.,12.0,0.,12.0,0.,12.0,0.,12.0
1979-07-15 06:45:24.930 ,0,1,0.,12.0,0.,12.0,0.,12.0,0.,12.0
1979-07-15 06:45:36.930 ,3,1,0.,12.0,0.,12.0,0.,12.0,0.,12.0
1979-07-15 06:45:48.930 ,3,1,0.,12.0,0.,12.0,0.,12.0,0.,12.0
1979-07-15 06:46:00.930 ,7,1,0.,12.0,0.,12.0,0.,12.0,0.,12.0
1979-07-15 06:46:12.930 ,7,1,0.,12.0,0.,12.0,0.,12.0,0.,12.0
1979-07-15 06:46:24.930 ,4,1,0.,12.0,0.,12.0,0.,12.0,0.,12.0
1979-07-15 06:46:36.930 ,4,1,0.,12.0,0.,12.0,0.,12.0,0.,12.0
1979-07-15 06:46:48.930 ,0,1,0.,12.0,0.,12.0,0.,12.0,0.,12.0
1979-07-15 06:47:00.930 ,0,1,0.,12.0,0.,12.0,0.,12.0,0.,12.0
1979-07-15 06:47:12.930 ,3,1,0.,12.0,0.,12.0,0.,12.0,0.,12.0
1979-07-15 06:47:24.930 ,3,1,0.,12.0,0.,12.0,0.,12.0,0.,12.0
1979-07-15 06:47:36.930 ,0,0,,0,,0,,0,,0
1979-07-15 06:47:48.930 ,0,0,,0,,0,,0,,0
1979-07-15 06:47:47.730 ,7,1,,0,,0,,0,,0
1979-07-15 06:47:59.730 ,7,1,,0,,0,,0,,0
1979-07-15 06:48:00.930 ,4,1,0.,12.0,0.,12.0,0.,12.0,0.,12.0
1979-07-15 06:48:12.930 ,4,1,0.,12.0,0.,12.0,0.,12.0,0.,12.0
1979-07-15 06:48:24.930 ,0,1,0.,12.0,0.,12.0,0.,12.0,0.,12.0
1979-07-15 06:48:36.930 ,0,1,0.,12.0,0.,12.0,0.,12.0,0.,12.0
1979-07-15 06:48:48.930 ,3,1,0.,12.0,0.,12.0,0.,12.0,0.,12.0
1979-07-15 06:49:00.930 ,3,1,0.,12.0,0.,12.0,0.,12.0,0.,12.0
1979-07-15 06:49:12.930 ,7,1,1.,12.0,0.,12.0,0.,12.0,0.,12.0
1979-07-15 06:49:24.930 ,7,1,0.,12.0,0.,12.0,0.,12.0,0.,12.0
1979-07-15 06:49:36.930 ,4,1,0.,12.0,0.,12.0,0.,12.0,0.,12.0
1979-07-15 06:49:48.930 ,4,1,0.,12.0,0.,12.0,0.,12.0,0.,12.0
1979-07-15 06:50:00.930 ,0,1,0.,12.0,0.,12.0,0.,12.0,0.,12.0
1979-07-15 06:50:12.930 ,0,1,0.,12.0,0.,12.0,0.,12.0,0.,12.0
1979-07-15 06:50:24.930 ,3,1,0.,12.0,0.,12.0,0.,12.0,0.,12.0
1979-07-15 06:50:36.930 ,3,1,0.,12.0,0.,12.0,0.,12.0,0.,12.0
1979-07-15 06:50:48.930 ,7,1,0.,12.0,0.,12.0,0.,12.0,0.,12.0
1979-07-15 06:51:00.930 ,7,1,0.,12.0,0.,12.0,0.,12.0,0.,12.0
1979-07-15 06:51:12.930 ,4,1,0.,12.0,0.,12.0,0.,12.0,0.,12.0
1979-07-15 06:51:24.930 ,4,1,0.,12.0,0.,12.0,0.,12.0,0.,12.0
1979-07-15 06:51:36.930 ,0,1,0.,12.0,0.,12.0,0.,12.0,0.,12.0
1979-07-15 06:51:48.930 ,0,1,0.,12.0,0.,12.0,0.,12.0,0.,12.0
1979-07-15 06:52:00.930 ,3,1,0.,12.0,0.,12.0,0.,12.0,0.,12.0
1979-07-15 06:52:12.930 ,3,1,0.,12.0,0.,12.0,0.,12.0,0.,12.0
1979-07-15 06:52:24.930 ,7,1,0.,12.0,0.,12.0,0.,12.0,0.,12.0
1979-07-15 06:52:36.930 ,7,1,1.,12.0,0.,12.0,0.,12.0,0.,12.0
1979-07-15 06:52:48.930 ,4,1,0.,12.0,0.,12.0,0.,12.0,0.,12.0
1979-07-15 06:53:00.930 ,4,1,0.,12.0,0.,12.0,0.,12.0,0.,12.0
1979-07-15 06:53:12.930 ,0,1,0.,12.0,0.,12.0,0.,12.0,0.,12.0
1979-07-15 06:53:24.930 ,0,1,0.,12.0,0.,12.0,0.,12.0,0.,12.0
1979-07-15 06:53:36.930 ,0,0,0.,12.0,0.,12.0,0.,12.0,0.,12.0
1979-07-15 06:53:48.930 ,0,0,0.,12.0,0.,12.0,0.,12.0,0.,12.0
1979-07-15 06:54:00.930 ,0,0,0.,12.0,0.,12.0,0.,12.0,0.,12.0
1979-07-15 06:54:12.930 ,0,0,0.,12.0,0.,12.0,0.,12.0,0.,12.0
1979-07-15 06:54:24.930 ,5,1,0.,12.0,0.,12.0,0.,12.0,0.,12.0
1979-07-15 06:54:36.930 ,5,1,0.,12.0,0.,12.0,0.,12.0,0.,12.0
1979-07-15 06:54:48.930 ,5,0,0.,12.0,0.,12.0,0.,12.0,0.,12.0
1979-07-15 06:55:00.930 ,5,0,0.,12.0,0.,12.0,0.,12.0,0.,12.0
1979-07-15 06:55:12.930 ,4,1,1.,12.0,0.,12.0,0.,12.0,0.,12.0
1979-07-15 06:55:24.930 ,4,1,0.,12.0,0.,12.0,0.,12.0,0.,12.0
1979-07-15 06:55:36.930 ,4,0,0.,12.0,0.,12.0,0.,12.0,0.,12.0
1979-07-15 06:55:48.930 ,4,0,1.,12.0,0.,12.0,0.,12.0,0.,12.0
1979-07-15 06:56:00.930 ,3,1,0.,12.0,0.,12.0,0.,12.0,0.,12.0
1979-07-15 06:56:12.930 ,3,1,0.,12.0,0.,12.0,0.,12.0,0.,12.0
1979-07-15 06:56:24.930 ,3,0,0.,12.0,0.,12.0,0.,12.0,0.,12.0
1979-07-15 06:56:36.930 ,3,0,0.,12.0,0.,12.0,0.,12.0,0.,12.0
1979-07-15 06:56:48.930 ,2,1,0.,12.0,0.,12.0,0.,12.0,0.,12.0
1979-07-15 06:57:00.930 ,2,1,0.,12.0,0.,12.0,0.,12.0,0.,12.0
1979-07-15 06:57:12.930 ,2,0,0.,12.0,0.,12.0,0.,12.0,0.,12.0
1979-07-15 06:57:24.930 ,2,0,0.,12.0,0.,12.0,0.,12.0,0.,12.0
1979-07-15 06:57:36.930 ,1,1,0.,12.0,0.,12.0,0.,12.0,0.,12.0
1979-07-15 06:57:48.930 ,1,1,0.,12.0,0.,12.0,0.,12.0,0.,12.0
1979-07-15 06:58:00.930 ,1,0,0.,12.0,0.,12.0,0.,12.0,0.,12.0
1979-07-15 06:58:12.930 ,1,0,0.,12.0,0.,12.0,0.,12.0,0.,12.0
1979-07-15 06:58:24.930 ,0,1,0.,12.0,0.,12.0,0.,12.0,0.,12.0
1979-07-15 06:58:36.930 ,0,1,0.,12.0,0.,12.0,0.,12.0,0.,12.0
1979-07-15 06:58:48.930 ,0,0,0.,12.0,0.,12.0,0.,12.0,0.,12.0
1979-07-15 06:59:00.930 ,0,0,0.,12.0,0.,12.0,0.,12.0,0.,12.0
1979-07-15 06:59:12.930 ,0,1,0.,12.0,0.,12.0,0.,12.0,0.,12.0
1979-07-15 06:59:24.930 ,0,1,0.,12.0,0.,12.0,0.,12.0,0.,12.0
1979-07-15 06:59:36.930 ,0,0,0.,12.0,0.,12.0,0.,12.0,0.,12.0
1979-07-15 06:59:48.930 ,0,0,0.,12.0,0.,12.0,0.,12.0,0.,12.0
1979-07-15 07:00:00.930 ,1,1,0.,12.0,0.,12.0,0.,12.0,0.,12.0
1979-07-15 07:00:12.930 ,1,1,0.,12.0,0.,12.0,0.,12.0,0.,12.0
1979-07-15 07:00:24.930 ,1,0,0.,12.0,0.,12.0,0.,12.0,0.,12.0
1979-07-15 07:00:36.930 ,1,0,0.,12.0,0.,12.0,0.,12.0,0.,12.0
1979-07-15 07:00:48.930 ,2,1,0.,12.0,0.,12.0,0.,12.0,0.,12.0
1979-07-15 07:01:00.930 ,2,1,0.,12.0,0.,12.0,0.,12.0,0.,12.0
1979-07-15 07:01:12.930 ,2,0,0.,12.0,0.,12.0,0.,12.0,0.,12.0
1979-07-15 07:01:24.930 ,2,0,0.,12.0,0.,12.0,0.,12.0,0.,12.0
1979-07-15 07:01:36.930 ,3,1,0.,12.0,0.,12.0,0.,12.0,0.,12.0
1979-07-15 07:01:48.930 ,3,1,1.,12.0,0.,12.0,0.,12.0,0.,12.0
1979-07-15 07:02:00.930 ,3,0,0.,12.0,0.,12.0,0.,12.0,0.,12.0
1979-07-15 07:02:12.930 ,3,0,1.,12.0,0.,12.0,0.,12.0,0.,12.0
1979-07-15 07:02:24.930 ,4,1,0.,12.0,0.,12.0,0.,12.0,0.,12.0
1979-07-15 07:02:36.930 ,4,1,0.,12.0,0.,12.0,0.,12.0,0.,12.0
1979-07-15 07:02:48.930 ,4,0,0.,12.0,0.,12.0,0.,12.0,0.,12.0
1979-07-15 07:03:00.930 ,4,0,0.,12.0,0.,12.0,0.,12.0,0.,12.0
1979-07-15 07:03:12.930 ,5,1,0.,12.0,0.,12.0,0.,12.0,0.,12.0
1979-07-15 07:03:24.930 ,5,1,0.,12.0,0.,12.0,0.,12.0,0.,12.0
1979-07-15 07:03:36.930 ,5,0,0.,12.0,0.,12.0,0.,12.0,0.,12.0
1979-07-15 07:03:48.930 ,5,0,0.,12.0,0.,12.0,0.,12.0,0.,12.0
1979-07-15 07:04:00.930 ,6,1,0.,12.0,0.,12.0,0.,12.0,0.,12.0
1979-07-15 07:04:12.930 ,6,1,1.,12.0,0.,12.0,0.,12.0,0.,12.0
1979-07-15 07:04:24.930 ,6,0,0.,12.0,0.,12.0,0.,12.0,0.,12.0
1979-07-15 07:04:36.930 ,6,0,0.,12.0,0.,12.0,0.,12.0,0.,12.0
1979-07-15 07:04:48.930 ,7,1,0.,12.0,0.,12.0,0.,12.0,0.,12.0
1979-07-15 07:05:00.930 ,7,1,0.,12.0,0.,12.0,0.,12.0,0.,12.0
1979-07-15 07:05:12.930 ,7,0,0.,12.0,0.,12.0,0.,12.0,0.,12.0
1979-07-15 07:05:24.930 ,7,0,0.,12.0,0.,12.0,0.,12.0,0.,12.0
1979-07-15 07:05:36.930 ,7,1,0.,12.0,0.,12.0,0.,12.0,0.,12.0
1979-07-15 07:05:48.930 ,7,1,0.,12.0,0.,12.0,0.,12.0,0.,12.0
1979-07-15 07:06:00.930 ,7,0,0.,12.0,0.,12.0,0.,12.0,0.,12.0
1979-07-15 07:06:12.930 ,7,0,0.,12.0,0.,12.0,0.,12.0,0.,12.0
1979-07-15 07:06:24.930 ,6,1,0.,12.0,0.,12.0,0.,12.0,0.,12.0
1979-07-15 07:06:36.930 ,6,1,0.,12.0,0.,12.0,0.,12.0,0.,12.0
1979-07-15 07:06:48.930 ,6,0,0.,12.0,0.,12.0,0.,12.0,0.,12.0
1979-07-15 07:07:00.930 ,6,0,0.,12.0,0.,12.0,0.,12.0,0.,12.0
1979-07-15 07:07:12.930 ,5,1,0.,12.0,0.,12.0,0.,12.0,0.,12.0
1979-07-15 07:07:24.930 ,5,1,0.,12.0,0.,12.0,0.,12.0,0.,12.0
1979-07-15 07:07:36.930 ,5,0,1.,12.0,0.,12.0,0.,12.0,0.,12.0
1979-07-15 07:07:48.930 ,5,0,0.,12.0,0.,12.0,0.,12.0,0.,12.0
1979-07-15 07:08:00.930 ,4,1,0.,12.0,0.,12.0,0.,12.0,0.,12.0
1979-07-15 07:08:12.930 ,4,1,0.,12.0,0.,12.0,0.,12.0,0.,12.0
1979-07-15 07:08:24.930 ,4,0,0.,12.0,0.,12.0,0.,12.0,0.,12.0
1979-07-15 07:08:36.930 ,4,0,0.,12.0,0.,12.0,0.,12.0,0.,12.0
1979-07-15 07:08:48.930 ,3,1,0.,12.0,0.,12.0,0.,12.0,0.,12.0
1979-07-15 07:09:00.930 ,3,1,0.,12.0,0.,12.0,0.,12.0,0.,12.0
1979-07-15 07:09:12.930 ,3,0,0.,12.0,0.,12.0,0.,12.0,0.,12.0
1979-07-15 07:09:24.930 ,3,0,0.,12.0,0.,12.0,0.,12.0,0.,12.0
1979-07-15 07:09:36.930 ,2,1,0.,12.0,0.,12.0,0.,12.0,0.,12.0
1979-07-15 07:09:48.930 ,2,1,0.,12.0,0.,12.0,0.,12.0,0.,12.0
1979-07-15 07:10:00.930 ,2,0,0.,12.0,0.,12.0,0.,12.0,0.,12.0
1979-07-15 07:10:12.930 ,2,0,0.,12.0,0.,12.0,0.,12.0,0.,12.0
1979-07-15 07:10:24.930 ,1,1,0.,12.0,0.,12.0,0.,12.0,0.,12.0
1979-07-15 07:10:36.930 ,1,1,0.,12.0,0.,12.0,0.,12.0,0.,12.0
1979-07-15 07:10:48.930 ,1,0,0.,12.0,0.,12.0,0.,12.0,0.,12.0
1979-07-15 07:11:00.930 ,1,0,0.,12.0,0.,12.0,0.,12.0,0.,12.0
1979-07-15 07:11:12.930 ,0,1,0.,12.0,0.,12.0,0.,12.0,0.,12.0
1979-07-15 07:11:24.930 ,0,1,0.,12.0,0.,12.0,0.,12.0,0.,12.0
1979-07-15 07:11:36.930 ,0,0,0.,12.0,0.,12.0,0.,12.0,0.,12.0
1979-07-15 07:11:48.930 ,0,0,0.,12.0,0.,12.0,0.,12.0,0.,12.0
1979-07-15 07:12:00.930 ,0,1,1.,12.0,0.,12.0,0.,12.0,0.,12.0
1979-07-15 07:12:12.930 ,0,1,0.,12.0,0.,12.0,0.,12.0,0.,12.0
1979-07-15 07:12:24.930 ,0,0,0.,12.0,0.,12.0,0.,12.0,0.,12.0
1979-07-15 07:12:36.930 ,0,0,0.,12.0,0.,12.0,0.,12.0,0.,12.0
1979-07-15 07:12:48.930 ,1,1,0.,12.0,0.,12.0,0.,12.0,0.,12.0
1979-07-15 07:13:00.930 ,1,1,0.,12.0,0.,12.0,0.,12.0,0.,12.0
1979-07-15 07:13:12.930 ,1,0,0.,12.0,0.,12.0,0.,12.0,0.,12.0
1979-07-15 07:13:24.930 ,1,0,0.,12.0,0.,12.0,0.,12.0,0.,12.0
1979-07-15 07:13:36.930 ,2,1,0.,12.0,0.,12.0,0.,12.0,0.,12.0
1979-07-15 07:13:48.930 ,2,1,0.,12.0,0.,12.0,0.,12.0,0.,12.0
1979-07-15 07:14:00.930 ,2,0,0.,12.0,0.,12.0,0.,12.0,0.,12.0
1979-07-15 07:14:12.930 ,2,0,0.,12.0,0.,12.0,0.,12.0,0.,12.0
1979-07-15 07:14:24.930 ,3,1,0.,12.0,0.,12.0,0.,12.0,0.,12.0
1979-07-15 07:14:36.930 ,3,1,0.,12.0,0.,12.0,0.,12.0,0.,12.0
1979-07-15 07:14:48.930 ,3,0,0.,12.0,0.,12.0,0.,12.0,0.,12.0
1979-07-15 07:15:00.930 ,3,0,0.,12.0,0.,12.0,0.,12.0,0.,12.0
1979-07-15 07:15:12.930 ,4,1,0.,12.0,0.,12.0,0.,12.0,0.,12.0
1979-07-15 07:15:24.930 ,4,1,0.,12.0,0.,12.0,0.,12.0,0.,12.0
1979-07-15 07:15:36.930 ,4,0,0.,12.0,0.,12.0,0.,12.0,0.,12.0
1979-07-15 07:15:48.930 ,4,0,0.,12.0,0.,12.0,0.,12.0,0.,12.0
1979-07-15 07:16:00.930 ,5,1,0.,12.0,0.,12.0,0.,12.0,0.,12.0
1979-07-15 07:16:12.930 ,5,1,0.,12.0,0.,12.0,0.,12.0,0.,12.0
1979-07-15 07:16:24.930 ,5,0,0.,12.0,0.,12.0,0.,12.0,0.,12.0
1979-07-15 07:16:36.930 ,5,0,0.,12.0,0.,12.0,0.,12.0,0.,12.0
1979-07-15 07:16:48.930 ,6,1,0.,12.0,0.,12.0,0.,12.0,0.,12.0
1979-07-15 07:17:00.930 ,6,1,0.,12.0,0.,12.0,0.,12.0,0.,12.0
1979-07-15 07:17:12.930 ,6,0,0.,12.0,0.,12.0,0.,12.0,0.,12.0